#timestamp,LO_Frequency,Hit,StdDev 
1459652415.5,286046997.4,N
1459652435.3,286046998.1,N
1459652455.1,286046998.3,N
1459652475.9,286046999.0,N
1459652495.7,286046998.5,N
1459652515.5,286046996.6,N
1459652535.4,286046995.7,N
1459652555.2,286046995.9,N
1459652575.0,286046997.8,N
1459652575.9,286046997.8,N
1459652595.8,286046995.5,N
1459652615.6,286046994.0,N
1459652635.4,286046993.3,N
1459652655.2,286046997.0,N
1459652675.1,286046997.3,N
1459652676.0,286046997.3,N
1459652695.8,286046995.0,N
1459652715.6,286046993.9,N
1459652735.5,286046991.8,Y
1459652755.3,286046996.6,P
1459652775.1,286046999.2,N
1459652795.9,286047001.0,N
1459652815.7,286047002.4,N
1459652835.5,286047001.5,N
1459652855.4,286046999.9,N
1459652875.2,286047000.7,N
1459652895.0,286046998.6,N
1459652895.9,286046998.6,N
1459652915.8,286046997.1,N
1459652935.6,286046998.8,N
1459652955.4,286047000.0,N
1459652975.3,286047000.8,N
1459652995.1,286047002.2,N
1459652996.0,286047002.2,N
1459653015.8,286047005.6,Y
1459653035.7,286047004.8,P
1459653055.5,286047006.4,N
1459653075.3,286047006.5,N
1459653095.2,286047007.3,N
1459653115.9,286047004.6,N
1459653135.7,286047004.7,N
1459653155.6,286047007.6,Y
1459653175.4,286046999.9,P
1459653195.2,286047002.7,N
1459653215.1,286047000.1,N
1459653216.0,286047000.1,N
1459653235.8,286047000.4,N
1459653255.6,286047002.0,N
1459653275.4,286046999.8,N
1459653295.3,286047000.6,N
1459653315.1,286046999.9,N
1459653335.8,286047000.4,N
1459653355.7,286047000.8,N
1459653375.5,286047002.7,N
1459653395.3,286046999.1,N
1459653415.2,286047000.5,N
1459653435.9,286046997.1,N
1459653455.7,286046995.6,N
1459653475.6,286046995.1,N
1459653495.4,286046997.6,N
1459653515.2,286046997.1,N
1459653535.0,286046997.2,N
1459653536.0,286046997.2,N
1459653555.8,286046998.9,N
1459653575.6,286046999.2,N
1459653595.4,286046998.3,N
1459653615.3,286046999.7,N
1459653635.1,286047000.9,N
1459653655.8,286046998.8,N
1459653675.7,286046996.8,N
1459653695.5,286046997.4,N
1459653715.3,286046997.2,N
1459653735.2,286046998.5,N
1459653755.9,286046999.1,N
1459653775.7,286046999.0,N
1459653795.6,286046997.1,N
1459653815.4,286046998.1,N
1459653835.2,286047000.9,N
1459653855.0,286047002.3,N
1459653856.0,286047002.3,N
1459653875.8,286046999.8,N
1459653895.6,286047000.9,N
1459653915.4,286047001.1,N
1459653935.3,286047000.7,N
1459653955.1,286047000.0,N
1459653975.8,286047002.1,N
1459653995.7,286046999.7,N
1459654015.5,286047003.1,N
1459654035.3,286047003.6,N
1459654055.2,286047003.8,N
1459654075.9,286047001.1,N
1459654095.7,286046999.1,N
1459654115.6,286047001.8,N
1459654135.4,286046999.8,N
1459654155.2,286047000.7,N
1459654175.1,286046998.1,N
1459654176.0,286046998.1,N
1459654195.8,286046999.1,N
1459654215.6,286046999.5,N
1459654235.4,286046997.0,N
1459654255.3,286046997.8,N
1459654275.1,286046997.1,N
1459654295.8,286046997.0,N
1459654315.7,286046997.7,N
1459654335.5,286046994.9,N
1459654355.3,286046997.3,N
1459654375.2,286046996.6,N
1459654395.9,286046999.6,N
1459654415.7,286046998.9,N
1459654435.6,286046997.2,N
1459654455.4,286046999.0,N
1459654475.2,286047000.8,N
1459654495.1,286046998.8,N
1459654496.0,286046998.8,N
1459654515.8,286046998.3,N
1459654535.6,286046999.1,N
1459654555.5,286046997.5,N
1459654575.3,286046997.6,N
1459654595.1,286046993.7,Y
1459654615.9,286046995.0,P
1459654635.7,286046997.0,N
1459654655.5,286046997.2,N
1459654675.4,286046997.2,N
1459654695.2,286046995.4,Y
1459654715.0,286046998.4,P
1459654715.9,286046998.4,N
1459654735.8,286047000.8,N
1459654755.6,286046998.9,N
1459654775.4,286046995.0,Y
1459654795.3,286046995.3,P
1459654815.1,286046996.6,N
1459654816.0,286046996.6,N
1459654835.8,286046999.3,N
1459654855.7,286046998.8,N
1459654875.5,286046998.9,N
1459654895.3,286047001.0,N
1459654915.1,286047000.5,N
1459654935.9,286046998.7,N
1459654955.7,286047000.5,N
1459654975.5,286047001.6,N
1459654995.4,286047003.3,N
1459655015.2,286047004.8,N
1459655035.0,286047001.7,N
1459655035.9,286047001.7,N
1459655055.8,286046999.8,N
1459655075.6,286047000.3,N
1459655095.4,286046998.7,N
1459655115.3,286047000.3,N
1459655135.1,286047000.0,N
1459655136.0,286047000.0,N
1459655155.8,286047002.8,N
1459655175.7,286046999.7,N
1459655195.5,286047002.0,N
1459655215.3,286047005.6,N
1459655235.2,286047008.8,Y
1459655255.9,286047007.4,P
1459655275.7,286047005.0,N
1459655295.6,286047003.3,N
1459655315.4,286047005.8,N
1459655335.2,286047003.5,N
1459655355.0,286047003.3,N
1459655356.0,286047003.3,N
1459655375.8,286047003.6,N
1459655395.6,286047002.6,N
1459655415.4,286047002.5,N
1459655435.3,286047004.1,N
1459655455.1,286047003.4,N
1459655475.8,286047001.6,N
1459655495.7,286047003.6,N
1459655515.5,286047003.3,N
1459655535.3,286047004.2,N
1459655555.2,286047002.0,N
1459655575.9,286047001.8,N
1459655595.7,286047003.8,N
1459655615.6,286047002.6,N
1459655635.4,286047003.9,N
1459655655.2,286047001.4,N
1459655675.0,286047003.3,N
1459655676.0,286047003.3,N
1459655695.8,286047003.8,N
1459655715.6,286047003.1,N
1459655735.4,286047002.4,N
1459655755.3,286047000.6,N
1459655775.1,286046999.6,N
1459655795.8,286046999.0,N
1459655815.7,286047000.3,N
1459655835.5,286047000.8,N
1459655855.3,286047002.4,N
1459655875.2,286047001.3,N
1459655895.9,286046999.9,N
1459655915.7,286047004.4,Y
1459655935.6,286046999.5,P
1459655955.4,286046997.9,N
1459655975.2,286046997.5,N
1459655995.1,286046997.6,N
1459655996.0,286046997.6,N
